450 RISULTATI COMPLESSIVI DELLE QUALIFICHE // 2023 WASHOUGAL NATIONAL (AGGIORNATO)

450 RISULTATI DI QUALIFICAZIONE // NAZIONALE DI WASHOUGAL 2023

Qui abbiamo elencato i risultati di qualificazione del Washougal National. Finora in questa stagione, Jett Lawrence è stato il più veloce in tutti tranne uno dei round di qualifiche cronometrate, dove Ken Roczen si è unito alla serie ed è riuscito a conquistare la pole position. Dal momento che Ken non è tornato a correre, la costanza di Jett lo ha prevalso in avanti, conquistando il primo posto nelle ultime quattro gare. Chase Sexton mantiene le cose interessanti, tuttavia, dal suo ritorno dall'infortunio all'inizio di questa stagione, è stato costantemente secondo a Jett nei segmenti a tempo. Abbiamo visto una buona spinta da Chase lo scorso fine settimana in entrambe le manche, dove abbiamo pensato per un minuto che sarebbe arrivato al leader Jett. Riuscirà nel fine settimana a Washougal e porrà fine alla serie di vittorie consecutive? Scoprilo oggi!

2023 WASHOUGAL NAZIONALE // COPERTURA COMPLETA


450 RISULTATI GENERALI DI QUALIFICAZIONE

Le 450 sessioni di qualificazione sono state piene di emozioni; a partire dalla prima qualifica, Jason Anderson e Chase Sexton guidano la carica, ma nella seconda sessione di qualifiche si è verificato un evento comune in cui Jett Lawrence è riuscito a riconquistare la prima posizione nelle qualifiche. Adam Cianciarulo ha notevolmente migliorato il suo tempo in qualifica nella seconda sessione, ottenendo un solido terzo posto nella sessione. I tempi sul giro sono scesi solo di una frazione di secondo nella seconda qualifica; questo è probabilmente il migliore che la pista sarà per tutto il giorno.

POS. # NOME MIGLIOR TEMPO
1 18 Jett Lawrence 2:14.510
2 21 Jason Anderson 2:15.407
3 9 Adamo Cianciarulo 2:15.632
4 23 Insegui Sexton 2:15.801
5 14 Dylan Ferrandi 2:16.515
6 81 Ty Masterpool 2:16.764
7 7 Aaron Plessinger 2:17.298
8 53 Derek Drake 2:17.831
9 104 Jed Beaton 2:18.539
10 36 Garrett Marchbanks 2:18.888
11 45 ColtNichols 2:19.218
12 78 Grant Harlan 2:19.532
13 47 Federico Noren 2:20.684
14 444 Papa romano 2:20.877
15 107 José Butron 2:21.112
16 69 Filippo Nicoletti 2:21.145
17 12 Shane McElrath 2:21.356
18 604 Max Miller 2:21.367
19 91 Jeremy Mano 2:21.658
20 11 Kyle Chisholm 2:21.868
21 397 Anton Gol 2:22.188
22 93 Jerry Pettirosso 2:22.283
23 64 Carson Brown 2:22.603
24 70 Justin Rodbell 2:22.916
25 751 Joshua Hill 2:23.094
26 726 Gared Steinke 2:23.111
27 388 Brandon Ray 2:23.451
28 111 Anthony Rodriguez 2:23.607
29 174 Luca Marsali 2:23.712
30 753 Hamish Harwood 2:24.176
31 476 Collin Jurin 2:24.304
32 511 Jace Kessler 2:24.431
33 926 Robert Martin 2:25.194
34 76 Domenico Thury 2:25.303
35 80 Kevin Moranz 2:25.415
36 617 Hayden Cordell 2:25.423

I primi 36 si trasferiscono direttamente nelle moto

37 296 Ryder Floyd 2:25.661
38 995 Cristoforo Prebula 2:25.795
39 226 Cameron Horner 2:25.859
40 517 Ty Freehill 2:25.964
41 454 Layton Smail 2:26.120
42 141 Richard Taylor 2:26.130
43 315 Cody Groves 2:26.224
44 126 RJ Wagemann 2:26.306
45 411 Scott Meshey 2:26.330
46 820 Matteo Burkeen 2:26.556
47 594 Hamburger Morgan Morgan 2:26.752
48 746 Trevor Schmidt 2:26.878
49 928 Bryce Hammond 2:27.367
50 230 Dylan Summerlin 2:27.375
51 113 lustrino Braden 2:27.598
52 828 Insegui Larson 2:27.991
53 528 Ryan Peters 2:28.187
54 674 Tyler Hansen 2:28.243
55 480 Ashton Oudmann 2:29.088
56 365 Tyler Basso 2:29.906
57 292 Kolton Dean 2:30.272
58 600 Connor Olson 2:30.415
59 149 Ciad Heishman 2:31.840
60 231 Adam conway 2:32.092
61 136 Giosuè Philbrick 2:32.174
62 325 Robert Wilson 2:32.607
63 190 Domenico De Simone 2:33.989
64 599 Bryant Humiston 2:34.258
65 732 Josh McBride 2:34.530
66 134 Insegui Adams 2:34.545
67 481 Giona Schmidt 2:34.564
68 497 Josh Lee 2:34.767
69 851 Neal allen 2:35.725
70 735 Jake Warren 2:36.040
71 176 Brandon Verde 2:36.044
72 737 Zachary Butkiewicz 2:36.151
73 433 Antonio Gonsalves 2:36.155
74 821 Jeffrey Gormann 2:36.215
75 845 Bryan O'Neil 2:37.296
76 450 Brad Burhart 2:39.789
77 396 Zach Rawlins 2:40.153
78 348 Jack Ferrell 2:40.848
79 982 Skylar Olson 2:41.607
80 917 Disegna Tommaso 2:42.155
81 641 Tommy Flora 2:44.365
82 305 Jack Saggau 2:45.043
83 407 Jay Olsen 2:46.151
84 880 Tyler Maddox 2:51.829
85 985 Pat McLam 2:52.418
86 319 Devon Bates 3:30.448

RISULTATI QUALIFICAZIONE 450: SESSIONE 1 (GRUPPO A)

Chase Sexton e Jason Anderson hanno entrambi battuto Jett Lawrence nella prima sessione, impressionante!

Chase Sexton e Jason Anderson lottano per il primo posto nella prima sessione di qualifiche cronometrate. Chase ha avuto un 2:15.8 contro il 2:15.4 di Jason, che gli ha dato la prima posizione nella sessione. Jett, da non dimenticare, era proprio lì dietro ai leader con un 2: 16.4 alla fine della sessione. Derek Drake ottiene una solida quinta posizione nelle prime qualifiche cronometrate, contribuendo a consolidare una buona scelta al cancello nelle manche. Insieme ai migliori piloti a due tempi Carson Brown, 5° nella prima sessione di qualifiche, e Brandon Ray, 16°

POS. # RIDER MIGLIOR TEMPO
1 21 Jason Anderson 2:15.407
2 23 Insegui Sexton 2:15.801
3 18 Jett Lawrence 2:16.488
4 9 Adamo Cianciarulo 2:16.851
5 53 Derek Drake 2:17.831
6 81 Ty Masterpool 2:18.343
7 7 Aaron Plessinger 2:18.485
8 14 Dylan Ferrandi 2:18.855
9 104 Jed Beaton 2:20.333
10 47 Federico Noren 2:20.684
11 444 Papa romano 2:20.877
12 12 Shane McElrath 2:21.356
13 69 Filippo Nicoletti 2:21.621
14 45 ColtNichols 2:21.844
15 78 Grant Harlan 2:21.941
16 64 Carson Brown 2:22.618
17 397 Anton Gol 2:22.865
18 93 Jerry Pettirosso 2:22.928
19 751 Joshua Hill 2:23.094
20 91 Jeremy Mano 2:23.475
21 107 José Butron 2:23.603
22 174 Luca Marsali 2:23.712
23 604 Max Miller 2:23.715
24 11 Kyle Chisholm 2:23.736
25 70 Justin Rodbell 2:24.139
26 388 Brandon Ray 2:25.011
27 76 Domenico Thury 2:25.303
28 36 Garrett Marchbanks 2:26.101
29 141 Richard Taylor 2:26.166
30 111 Anthony Rodriguez 2:26.252
31 80 Kevin Moranz 2:26.598
32 126 RJ Wagemann 2:26.638
33 296 Ryder Floyd 2:26.683
34 511 Jace Kessler 2:26.912
35 411 Scott Meshey 2:27.052
36 995 Cristoforo Prebula 2:27.240
37 928 Bryce Hammond 2:27.367
38 746 Trevor Schmidt 2:27.388
39 226 Cameron Horner 2:30.823
40 315 Cody Groves 2:32.693
41 365 Tyler Basso 2:33.448
42 136 Giosuè Philbrick 2:34.789
43 820 Matteo Burkeen 2:55.444

2023 WASHOUGAL NAZIONALE // COPERTURA COMPLETA

Ti potrebbe piacere anche

I commenti sono chiusi.